BY70-2 (45857 NORAD) Tracking and Keplerian Element Data

This shows tracking and keplerian element data for the satellite.

Feedback or suggestion? Click here.




ElementValue
Catalog45857
NameBY70-2
Epoch Orbit21318
Epoch Day160.24355471
Epoch Year2024
RAAN253.2018
Inclination97.9074
Eccentricity0.0012026
Argument of Perigee235.7261
Mean Anonmoly124.2839
Mean Motion15.29066685
Decay Rate0.00181982
L11 45857U 20042B 24160.24355471 .00181982 00000+0 62919-2 0 9998
L22 45857 97.9074 253.2018 0012026 235.7261 124.2839 15.29066685213187



Live tracking and technical data element details for BY70-2 (NORAD 45857). BY70-2 can be tracked NOW for your location showing map with azimuth and elevation plus other details from your city location.







IsCatalogInMostPopularTable: catalog: 45857, numindb: 243
Update: records affected: 1



GetName: 45857 BY70-2

Hit Count: updated at: Thu, 23 Jan 2025 16:24:40 GMT